Miscellaneous Local Product
Issued by NWS Hastings, NE

Home | Current Version | Previous Version | Graphics & Text | Print | Product List | Glossary On
Versions: 1 2 3 4 5 6 7 8 9 10 11 12 13 14 15 16 17 18 19 20 21 22 23 24 25 26 27 28 29 30 31 32 33 34 35 36 37 38 39 40 41 42 43 44 45 46 47 48 49 50
000
AXUS43 KGID 192102
MISGRI

GID CWA HOURLY WEATHER ROUNDUP
NATIONAL WEATHER SERVICE HASTINGS NE
400 PM CDT WED JUL 19 2017

NOTE: "FAIR" INDICATES FEW OR NO CLOUDS BELOW 12,000 FEET WITH NO
SIGNIFICANT WEATHER AND/OR OBSTRUCTIONS TO VISIBILITY.

...SOUTH CENTRAL NEBRASKA...

CITY           SKY/WX    TMP DP  RH WIND       PRES   REMARKS
GRAND ISLAND   SUNNY     96  75  50 S18       29.94F HX 108
HASTINGS       SUNNY     95  73  48 S14G23    29.98F HX 104
KEARNEY        SUNNY     95  77  55 S15       29.97F HX 109
ORD            SUNNY     95  71  45 S15       29.91F HX 102
YORK           SUNNY     91  75  59 S16G28    29.95F HX 102
AURORA         SUNNY     93  76  56 S15G21    29.95F HX 105
LEXINGTON      SUNNY     95  74  50 S13       29.96F HX 105
HOLDREGE       SUNNY     96  73  47 S10       29.97F HX 104
HEBRON         SUNNY     96  72  44 S15       29.97F HX 104

...NEBRASKA PANHANDLE...

CITY           SKY/WX    TMP DP  RH WIND       PRES   REMARKS
CHADRON        SUNNY    103  42  12 N14G20    29.91F HX  98
ALLIANCE       SUNNY    101  50  18 SW8       29.98F HX  98
SCOTTSBLUFF    SUNNY    102  47  15 VRB5      29.98F HX  98
SIDNEY         MOSUNNY  102  55  20 S8G21     30.04F HX 100

...WESTERN AND NORTH CENTRAL NEBRASKA...

CITY           SKY/WX    TMP DP  RH WIND       PRES   REMARKS
VALENTINE      MOSUNNY  110  51  14 SW18G26   29.85F HX 107
AINSWORTH      MOSUNNY  104  60  23 SW18G25   29.87F HX 104
ONEILL         SUNNY    100  70  37 SE12G21   29.90F HX 107
BROKEN BOW     SUNNY     99  70  38 S20G30    29.94F HX 106
IMPERIAL       SUNNY    103  51  17 S21G30    29.97F HX 100
NORTH PLATTE   SUNNY    105  59  22 SW13      29.93F HX 105
MCCOOK         SUNNY    107  60  21 SW18G26   29.95F HX 108

...EASTERN NEBRASKA...

CITY           SKY/WX    TMP DP  RH WIND       PRES   REMARKS
NORFOLK        SUNNY     94  74  52 S20G25    29.92R HX 104
SO SIOUX CITY  MOSUNNY   94  76  55 S16G23    29.91S HX 106
TEKAMAH        SUNNY     93  74  53 S17G25    29.92F HX 103
COLUMBUS       SUNNY     93  75  55 S20G26    29.94F HX 104
ALBION         SUNNY     96  74  48 S15G23    29.92F HX 106
OMAHA EPPLEY   MOSUNNY   95  75  52 S20       29.94F HX 107
OFFUTT AFB     SUNNY     92  78  61 S16G22    29.95F HX 107
MILLARD        SUNNY     96  79  57 S16       29.95S HX 113
LINCOLN        SUNNY     94  76  55 S24G30    29.94F HX 106
NEBRASKA CITY  MOSUNNY   90  81  74 S15       29.97F HX 109
BEATRICE       SUNNY     96  75  50 S18G24    29.97F HX 109
FALLS CITY     CLOUDY    89  76  65 S15       29.99F HX 100

...NORTHERN KANSAS...

CITY           SKY/WX    TMP DP  RH WIND       PRES   REMARKS
GOODLAND       SUNNY     97  59  28 S18G25    30.03F HX  96
HILL CITY      SUNNY    105  55  19 S12G24    29.97F HX 104
NORTON         CLEAR    104  45  13 S14G22    29.96F HX 100
PHILLIPSBURG   SUNNY    102  57  22 S17       29.95S HX 101
SMITH CENTER   CLOUDY    97  64  34 S16G22    29.97F HX  99
HAYS           SUNNY    103  59  23 S15G24    29.98F HX 103
RUSSELL        SUNNY    102  60  25 S20G28    29.98F HX 103
CONCORDIA      SUNNY     98  68  37 S16G23    29.98F HX 103
SALINA         SUNNY    104  65  28 S17G25    29.99F HX 108
TOPEKA         PTSUNNY   96  75  50 S13G21    30.02S HX 108



USA.gov is the U.S. government's official web portal to all federal, state and local government web resources and services.